Starlink 31381

operational
NORAD ID: 59469 Int'l Des: 2024-068 Owner: SPXS Country: US Constellation: starlink
LEOCIRCULAR

Über Starlink 31381

Beschreibung wird geladen...

Live-Position

3D-Globus wird geladen...

Nächste Überflüge

Höhenverlauf

Altitude vs Time

uPlot chart will show altitude changes over time

Zweizeiliger Elementsatz

1 59469U 24068Q 25351.70869853 -.00002546 00000-0 -83071-4 0 9997
2 59469 43.0023 134.1435 0001196 277.8477 82.2239 15.27561369 96025
Epoch: 17. Dez. 2025 • Age: 19 hours

Aktueller Status

Höhe 487.4 km
Geschwindigkeit 7.62 km/s
Subsatellitenpunkt -21.27°S, 157.64°W
Startdatum 10. Apr. 2024
Alter 1.6 years
Typ internet

Technische Details

Klassifizierung Payload
Masse 730.00 kg
Trockenmasse 700.00 kg
Gesamtmasse 730.00 kg
Länge 0.30 m
Durchmesser 4.10 m
Spannweite 29.00 m
Form Box + pan
Hersteller SPXS
Bus-Typ Starlink V2M
Phasenstatus In Orbit
Besitzer/Staat SPXS/US

Große Konstellationen

Loading constellations...